KBOS

Boston/Logan International

Airport
ICAO code
KBOS
IATA Code
BOS
Summary
ICAO Region
NAM
ICAO Territory
Location

East Boston, Massachusetts,

Serving
Boston
Elevation
20 ft
Coordinates
42° 21' 55" N , 71° 0' 27" W
KCC
Airport BS
Bird Strike
Airport LOS
Parallel Runway Operation
Airport RE
Engineered Materials Arresting System
Metar
Observation
KBOS 011354Z VRB04KT 10SM FEW070 OVC100 12/07 A3018 RMK AO2 RAB39E53 SLP219 P0000 T01220072
Station
Boston, Logan International Airport
Date/Time
2022-10-01 13:54:00
Wind speed
04 kts
Lowest cloud amount
few clouds
Temperature
12.2°C
Dew point
7.2°C
Humidity
71%
Weather condition
n/a

Description

General Edward Lawrence Logan International Airport in the East Boston neighbourhood of Boston, Massachusetts, United States.

Climatology

Humid continental climate with a maritime influence (Köppen climate classification Dfa/Cfa) - characterized by four seasons: cold, windy, snowy winters, mild springs, hot, humid summers, and crisp and relatively short autumns. Precipitation reaches its lowest in January and February and peaks in summer and latter half of spring.

Airport map

Aerial View

Airport accidents

SKYbrary Partners:

Safety knowledge contributed by: